Nuiqsut, AK

5:39 AM AKDT on March 25, 2017 (GMT -0800)
Nuiqsut

Weather History for PAQT - March, 2012

Change the Weather History Date:

Monday, March 5, 2012

  Actual Average (PAKU) Record (PAKU)
Temperature  
Mean Temperature -38 °F -  
Max Temperature -33 °F -7 °F 6 °F (2003)
Min Temperature -42 °F -18 °F -41 °F (2007)
Degree Days  
Heating Degree Days 102    
Moisture  
Dew Point -    
Average Humidity    
Maximum Humidity    
Minimum Humidity    
Precipitation  
Precipitation 0.00 in - - ()
Sea Level Pressure  
Sea Level Pressure 30.07 in    
Wind  
Wind Speed 11 mph (South)    
Max Wind Speed 15 mph    
Max Gust Speed -    
Visibility 8 miles    
Events      
Averages and records for this station are not official NWS values.
T = Trace of Precipitation, MM = Missing Value Source: NWS Daily Summary

Daily Weather History Graph

Daily Weather History Graph

Search for Another Location

Airport or City:

Trip Planner

Search our weather history database for the weather conditions in past years. The results will help you decide how hot, cold, wet, or windy it might be!

Date:

Astronomy

Mar. 05, 2012 Rise Set
Actual Time 8:09 AM AKST 6:22 PM AKST
Civil Twilight 7:08 AM AKST 7:24 PM AKST
Nautical Twilight 5:56 AM AKST 8:37 PM AKST
Astronomical Twilight 4:37 AM AKST 9:57 PM AKST
Moon 2:39 PM AKST (3/5) 7:39 AM AKST (3/5)
Length of Visible Light 12h 16m
Length of Day
10h 13m
Waxing Gibbous, 92% of the Moon is Illuminated
Mar 5
Waxing Gibbous
Mar 8
Full
Mar 14
Last Quarter
Mar 22
New
Mar 30
First Quarter

Hourly Weather History & Observations

Time (AKST) Temp. Windchill Dew Point Humidity Pressure Visibility Wind Dir Wind Speed Gust Speed Precip Events Conditions
12:03 AM -36.4 °F -66.0 °F - N/A% 30.36 in 7.0 mi SW 15.0 mph - N/A   Mostly Cloudy
12:53 AM -36.0 °F -64.5 °F - N/A% 30.38 in 7.0 mi SW 13.8 mph - N/A   Mostly Cloudy
1:53 AM -36.0 °F -64.5 °F - N/A% 30.38 in 7.0 mi SW 13.8 mph - N/A   Overcast
2:09 AM -36.4 °F -65.0 °F - N/A% 30.37 in 7.0 mi SSW 13.8 mph - N/A   Scattered Clouds
3:53 AM -38.9 °F -67.1 °F - N/A% 30.35 in 7.0 mi SSW 12.7 mph - N/A   Clear
4:53 AM -38.9 °F -68.2 °F - N/A% 30.33 in 5.0 mi SSW 13.8 mph - N/A   Haze
5:53 AM -40.0 °F -68.4 °F - N/A% 30.32 in 5.0 mi SSW 12.7 mph - N/A   Haze
6:53 AM -41.1 °F -70.9 °F - N/A% 30.29 in 5.0 mi SSW 13.8 mph - N/A   Haze
7:53 AM -42.0 °F -65.3 °F - N/A% 30.25 in 5.0 mi South 8.1 mph - N/A   Haze
8:53 AM -42.0 °F -65.3 °F - N/A% 30.22 in 10.0 mi South 8.1 mph - N/A   Clear
9:53 AM -40.0 °F -69.5 °F - N/A% 30.20 in 4.0 mi SSW 13.8 mph - N/A   Haze
10:53 AM -38.0 °F -56.7 °F - N/A% 30.16 in 10.0 mi South 5.8 mph - N/A   Clear
11:53 AM -36.0 °F -58.1 °F - N/A% 30.12 in 10.0 mi South 8.1 mph - N/A   Clear
12:53 PM -35.0 °F -58.3 °F - N/A% 30.10 in 10.0 mi SSW 9.2 mph - N/A   Clear
1:53 PM -33.0 °F - - N/A% 30.04 in 10.0 mi Calm Calm - N/A   Clear
2:53 PM -33.0 °F - - N/A% 30.01 in 10.0 mi Calm Calm - N/A   Clear
3:53 PM -33.0 °F -48.4 °F - N/A% 29.96 in 10.0 mi South 4.6 mph - N/A   Clear
4:53 PM -34.1 °F - - N/A% 29.90 in 10.0 mi Calm Calm - N/A   Clear
5:12 PM -34.6 °F -47.4 °F - N/A% 29.87 in 10.0 mi ENE 3.5 mph - N/A   Partly Cloudy
5:53 PM -33.0 °F -48.4 °F - N/A% 29.84 in 10.0 mi NE 4.6 mph - N/A   Clear
6:53 PM -33.0 °F -52.7 °F - N/A% 29.80 in 10.0 mi ENE 6.9 mph - N/A   Clear
7:53 PM -34.1 °F -57.2 °F - N/A% 29.75 in 10.0 mi NNE 9.2 mph - N/A   Clear
8:53 PM -35.0 °F -56.8 °F - N/A% 29.74 in 10.0 mi NE 8.1 mph - N/A   Clear
9:53 PM -35.0 °F -59.7 °F - N/A% 29.70 in 8.0 mi NE 10.4 mph - N/A   Clear
10:53 PM -34.1 °F -58.5 °F - N/A% 29.67 in 8.0 mi NE 10.4 mph - N/A   Clear
11:53 PM -34.1 °F -52.0 °F - N/A% 29.65 in 7.0 mi ENE 5.8 mph - N/A   Clear